Time,TemperatureF,DewpointF,PressureIn,WindDirection,WindDirectionDegrees,WindSpeedMPH,WindSpeedGustMPH,Humidity,HourlyPrecipIn,Conditions,Clouds,dailyrainin,SolarRadiationWatts/m^2,SoftwareType,DateUTC
2013-04-09 00:12:00,38.0,31.0,-100.00,North,354,8.0,10.0,77,-99.99,,,0.00,0.000000,,2013-04-09 07:12:00,
2013-04-09 02:12:00,36.0,29.0,-100.00,NNW,334,5.0,6.0,78,-99.99,,,0.00,0.120000,,2013-04-09 09:12:00,
2013-04-09 03:12:00,30.0,27.0,-100.00,SSE,155,5.0,7.0,88,-99.99,,,0.00,0.120000,,2013-04-09 10:12:00,
2013-04-09 04:12:00,29.0,26.0,-100.00,SSE,166,5.0,6.0,89,-99.99,,,0.00,0.120000,,2013-04-09 11:12:00,
2013-04-09 05:12:00,27.0,25.0,-100.00,South,183,3.0,5.0,92,-99.99,,,0.00,0.120000,,2013-04-09 12:12:00,
2013-04-09 06:12:00,25.0,23.0,-100.00,SSE,153,3.0,6.0,92,-99.99,,,0.00,0.120000,,2013-04-09 13:12:00,
2013-04-09 07:12:00,26.0,24.0,-100.00,SE,139,3.0,4.0,92,-99.99,,,0.00,0.350000,,2013-04-09 14:12:00,
2013-04-09 08:12:00,27.0,25.0,-100.00,SSE,159,3.0,4.0,90,-99.99,,,0.00,98.320000,,2013-04-09 15:12:00,
2013-04-09 09:13:00,34.0,29.0,-100.00,South,183,5.0,7.0,81,-99.99,,,0.00,274.279999,,2013-04-09 16:13:00,
2013-04-09 10:12:00,39.0,31.0,-100.00,South,170,4.0,6.0,72,-99.99,,,0.00,499.980011,,2013-04-09 17:12:00,
2013-04-09 13:12:00,51.0,32.0,-100.00,North,350,3.0,7.0,47,-99.99,,,0.00,858.869995,,2013-04-09 20:12:00,
2013-04-09 14:13:00,53.0,29.0,-100.00,WSW,243,3.0,7.0,39,-99.99,,,0.00,846.080017,,2013-04-09 21:13:00,
2013-04-09 15:12:00,55.0,29.0,-100.00,NNE,32,4.0,9.0,36,-99.99,,,0.00,801.690002,,2013-04-09 22:12:00,
2013-04-09 16:12:00,57.0,27.0,-100.00,NNW,328,3.0,5.0,30,-99.99,,,0.00,752.289978,,2013-04-09 23:12:00,
2013-04-09 18:12:00,58.0,26.0,-100.00,NE,51,4.0,9.0,28,-99.99,,,0.00,441.290009,,2013-04-10 01:12:00,
2013-04-09 19:12:00,58.0,30.0,-100.00,NNW,334,5.0,9.0,34,-99.99,,,0.00,137.949997,,2013-04-10 02:12:00,
2013-04-09 20:12:00,53.0,34.0,-100.00,NNW,344,8.0,12.0,49,-99.99,,,0.00,34.869999,,2013-04-10 03:12:00,
2013-04-09 21:13:00,51.0,32.0,-100.00,North,7,4.0,5.0,47,-99.99,,,0.00,0.120000,,2013-04-10 04:13:00,
2013-04-09 22:13:00,50.0,33.0,-100.00,NNW,336,5.0,8.0,51,-99.99,,,0.00,0.000000,,2013-04-10 05:13:00,
2013-04-09 23:12:00,49.0,34.0,-100.00,SSE,148,5.0,7.0,54,-99.99,,,0.00,0.000000,,2013-04-10 06:12:00,